TimePDT,TemperatureF,Dew PointF,Humidity,Sea Level PressureIn,VisibilityMPH,Wind Direction,Wind SpeedMPH,Gust SpeedMPH,PrecipitationIn,Events,Conditions,WindDirDegrees,DateUTC
12:55 AM,69.1,43.0,39,29.57,10.0,NW,16.1,20.7,N/A,,Mostly Cloudy,310,2013-09-21 07:55:00
1:55 AM,66.9,43.0,42,29.55,10.0,NNW,9.2,-,N/A,,Mostly Cloudy,330,2013-09-21 08:55:00
2:55 AM,64.9,45.0,48,29.55,10.0,NW,15.0,-,0.00,Rain,Light Rain,320,2013-09-21 09:55:00
3:55 AM,63.0,46.9,56,29.55,10.0,NW,8.1,-,0.00,Rain,Light Rain,320,2013-09-21 10:55:00
4:55 AM,62.1,46.9,58,29.56,10.0,Calm,Calm,-,0.00,,Clear,0,2013-09-21 11:55:00
5:55 AM,60.1,46.0,60,29.57,10.0,WNW,8.1,-,N/A,,Mostly Cloudy,290,2013-09-21 12:55:00
6:55 AM,57.9,46.0,65,29.58,10.0,NW,5.8,-,N/A,,Clear,320,2013-09-21 13:55:00
7:55 AM,59.0,46.9,64,29.61,10.0,WNW,6.9,-,N/A,,Clear,300,2013-09-21 14:55:00
8:55 AM,62.1,46.9,58,29.62,10.0,WNW,4.6,-,N/A,,Clear,290,2013-09-21 15:55:00
9:55 AM,66.0,44.1,45,29.62,10.0,NW,10.4,-,N/A,,Clear,320,2013-09-21 16:55:00
10:55 AM,69.1,43.0,39,29.62,10.0,NW,17.3,-,N/A,,Clear,310,2013-09-21 17:55:00
11:55 AM,71.1,41.0,34,29.61,10.0,NW,6.9,-,N/A,,Clear,310,2013-09-21 18:55:00
12:55 PM,71.1,42.1,35,29.60,10.0,Calm,Calm,-,N/A,,Clear,0,2013-09-21 19:55:00
1:55 PM,72.0,42.1,34,29.59,10.0,ESE,3.5,-,N/A,,Partly Cloudy,120,2013-09-21 20:55:00
2:55 PM,73.0,39.9,30,29.58,10.0,WSW,3.5,-,N/A,,Clear,240,2013-09-21 21:55:00
3:55 PM,73.9,36.0,25,29.57,10.0,WNW,5.8,-,N/A,,Partly Cloudy,300,2013-09-21 22:55:00
4:55 PM,73.0,36.0,26,29.57,10.0,WNW,8.1,-,N/A,,Clear,300,2013-09-21 23:55:00
5:55 PM,71.1,37.0,29,29.58,10.0,WNW,9.2,-,N/A,,Partly Cloudy,290,2013-09-22 00:55:00
6:55 PM,68.0,37.0,32,29.60,10.0,WNW,11.5,-,N/A,,Clear,290,2013-09-22 01:55:00
7:55 PM,64.9,37.9,37,29.61,10.0,NW,10.4,-,N/A,,Mostly Cloudy,320,2013-09-22 02:55:00
8:55 PM,63.0,39.0,41,29.63,10.0,NW,13.8,-,N/A,,Clear,310,2013-09-22 03:55:00
9:55 PM,62.1,39.0,43,29.62,10.0,NW,8.1,-,N/A,,Partly Cloudy,310,2013-09-22 04:55:00
10:55 PM,60.1,41.0,49,29.62,10.0,NW,11.5,-,N/A,,Clear,310,2013-09-22 05:55:00
11:55 PM,59.0,41.0,51,29.63,10.0,NW,12.7,-,N/A,,Clear,310,2013-09-22 06:55:00